Find Gao Fen 12-04

NORAD ID: 57654 Int'l Des: 2023-123 Owner: ZLZB Country: CN operational
LEOCIRCULARRETROGRADESSO

現在のビュー

3D地球を読み込み中...

Gao Fen 12-04について

説明を読み込み中...

次回通過

Passes for default location (London). Set your location on the main map for personalized predictions.

高度履歴

Loading altitude history...

軌道要素

1 57654U 23123A 26151.16998721 .00001292 00000-0 17684-3 0 9999
2 57654 97.9130 69.4319 0001738 90.7211 269.4200 14.80191761150118
Epoch: May 31, 2026 • Age: 12 hours

現在のステータス

高度 638.2 km
速度 7.55 km/s
衛星直下点 61.85°N, 70°W
打ち上げ日 Aug 20, 2023
運用期間 2.7 years
タイプ other

技術仕様

分類 Payload
質量 3000.00 kg
乾燥質量 3000.00 kg
総質量 3000.00 kg
長さ 2.00 m
直径 2.00 m
スパン 8.00 m
形状 Box + 3 Pan
製造者 SAST
バスタイプ CS-L3000B
フェーズステータス In Orbit
所有者/国 ZLZB/CN

Most Searched